• In Hungary
  • List of Countries
  • For 7 days
  • Water Temperature
  • Satellite Maps
  • Weather Map
  • News
  • Weather Widgets
  • user-avatar
    Login

    Hourly Weather Kardzhali

    Today, 21 June, Thursday

    Time Temperature Precipitation Wind Pressure Humidity
    00:00 +19°C° 0 mm 2 mps 728 mmHg 62%
    01:00 +18°C° 0 mm 2 mps 728 mmHg 63%
    02:00 +18°C° 0 mm 2 mps 728 mmHg 68%
    03:00 +18°C° 0 mm 2 mps 728 mmHg 69%
    04:00 +17°C° 0 mm 2 mps 728 mmHg 70%
    05:00 +17°C° 0 mm 2 mps 728 mmHg 71%
    06:00 +19°C° 0 mm 2 mps 728 mmHg 64%
    07:00 +22°C° 0 mm 3 mps 728 mmHg 58%
    08:00 +25°C° 0 mm 3 mps 728 mmHg 48%
    09:00 +27°C° 0 mm 4 mps 728 mmHg 42%
    10:00 +28°C° 0 mm 4 mps 728 mmHg 36%
    11:00 +29°C° 0 mm 4 mps 728 mmHg 30%
    12:00 +30°C° 0 mm 4 mps 727 mmHg 29%
    13:00 +31°C° 0 mm 3 mps 727 mmHg 27%
    14:00 +31°C° 0 mm 3 mps 727 mmHg 26%
    15:00 +31°C° 0 mm 3 mps 727 mmHg 28%
    16:00 +31°C° 0 mm 3 mps 726 mmHg 29%
    17:00 +30°C° 0 mm 3 mps 726 mmHg 31%
    18:00 +28°C° 0 mm 2 mps 726 mmHg 36%
    19:00 +26°C° 0 mm 2 mps 725 mmHg 42%
    20:00 +24°C° 0 mm 1 mps 725 mmHg 47%
    21:00 +23°C° 0 mm 1 mps 725 mmHg 49%
    22:00 +22°C° 0 mm 1 mps 725 mmHg 52%
    23:00 +21°C° 0 mm 1 mps 725 mmHg 54%

    Tomorrow, 22 June, Friday

    Time Temperature Precipitation Wind Pressure Humidity
    00:00 +21°C° 0 mm 1 mps 725 mmHg 55%
    01:00 +20°C° 0 mm 1 mps 725 mmHg 56%
    02:00 +20°C° 0 mm 1 mps 725 mmHg 56%
    03:00 +20°C° 0 mm 1 mps 724 mmHg 56%
    04:00 +20°C° 0 mm 1 mps 724 mmHg 56%
    05:00 +19°C° 0 mm 1 mps 724 mmHg 56%
    06:00 +21°C° 0 mm 1 mps 724 mmHg 53%
    07:00 +23°C° 0 mm 1 mps 724 mmHg 49%
    08:00 +26°C° 0 mm 1 mps 725 mmHg 45%
    09:00 +27°C° 0 mm 1 mps 725 mmHg 42%
    10:00 +29°C° 0 mm 1 mps 725 mmHg 39%
    11:00 +30°C° 0 mm 1 mps 725 mmHg 36%
    12:00 +30°C° 0.1 mm 2 mps 724 mmHg 36%
    13:00 +31°C° 0.1 mm 2 mps 724 mmHg 36%
    14:00 +31°C° 0.1 mm 2 mps 724 mmHg 36%
    15:00 +31°C° 0.1 mm 3 mps 723 mmHg 38%
    16:00 +30°C° 0.1 mm 3 mps 723 mmHg 40%
    17:00 +30°C° 0.1 mm 3 mps 723 mmHg 42%
    18:00 +28°C° 0.1 mm 3 mps 723 mmHg 48%
    19:00 +26°C° 0.1 mm 2 mps 723 mmHg 55%
    20:00 +24°C° 0.1 mm 2 mps 723 mmHg 61%
    21:00 +23°C° 0.3 mm 2 mps 723 mmHg 64%
    22:00 +23°C° 0.3 mm 2 mps 723 mmHg 67%
    23:00 +21°C° 0.3 mm 2 mps 724 mmHg 71%

    Day after tomorrow, 23 June, Saturday

    Time Temperature Precipitation Wind Pressure Humidity
    00:00 +20°C° 0 mm 2 mps 724 mmHg 73%
    01:00 +20°C° 0 mm 2 mps 724 mmHg 76%
    02:00 +19°C° 0 mm 2 mps 724 mmHg 79%
    03:00 +19°C° 0.1 mm 2 mps 724 mmHg 81%
    04:00 +18°C° 0.1 mm 2 mps 724 mmHg 83%
    05:00 +18°C° 0.1 mm 2 mps 724 mmHg 85%
    06:00 +19°C° 0.1 mm 3 mps 724 mmHg 79%
    07:00 +20°C° 0.1 mm 3 mps 725 mmHg 73%
    08:00 +21°C° 0.1 mm 4 mps 725 mmHg 67%
    09:00 +22°C° 0.2 mm 4 mps 725 mmHg 63%
    10:00 +22°C° 0.2 mm 4 mps 726 mmHg 58%
    11:00 +23°C° 0.2 mm 4 mps 726 mmHg 53%
    12:00 +23°C° 0.5 mm 4 mps 726 mmHg 54%
    13:00 +22°C° 0.5 mm 3 mps 726 mmHg 55%
    14:00 +22°C° 0.5 mm 3 mps 726 mmHg 56%
    15:00 +21°C° 0.8 mm 2 mps 726 mmHg 61%
    16:00 +20°C° 0.8 mm 2 mps 726 mmHg 66%
    17:00 +19°C° 0.8 mm 2 mps 725 mmHg 70%
    18:00 +18°C° 0.1 mm 2 mps 726 mmHg 71%
    19:00 +18°C° 0.1 mm 2 mps 726 mmHg 71%
    20:00 +17°C° 0.1 mm 2 mps 726 mmHg 72%
    21:00 +17°C° 0 mm 2 mps 727 mmHg 72%
    22:00 +16°C° 0 mm 2 mps 727 mmHg 73%
    23:00 +16°C° 0 mm 2 mps 727 mmHg 73%

    24 June, Sunday

    Time Temperature Precipitation Wind Pressure Humidity
    00:00 +16°C° 0 mm 2 mps 727 mmHg 73%
    01:00 +15°C° 0 mm 2 mps 727 mmHg 73%
    02:00 +15°C° 0 mm 2 mps 727 mmHg 73%
    03:00 +15°C° 0 mm 2 mps 727 mmHg 74%
    04:00 +15°C° 0 mm 2 mps 727 mmHg 74%
    05:00 +15°C° 0 mm 2 mps 727 mmHg 74%
    06:00 +15°C° 0 mm 2 mps 727 mmHg 71%
    07:00 +16°C° 0 mm 2 mps 728 mmHg 68%
    08:00 +17°C° 0 mm 2 mps 728 mmHg 65%
    09:00 +19°C° 0 mm 2 mps 728 mmHg 58%
    10:00 +20°C° 0 mm 3 mps 728 mmHg 51%
    11:00 +22°C° 0 mm 3 mps 728 mmHg 44%
    12:00 +24°C° 0 mm 3 mps 728 mmHg 43%
    13:00 +24°C° 0 mm 2 mps 728 mmHg 42%
    14:00 +25°C° 0 mm 2 mps 728 mmHg 41%
    15:00 +25°C° 0 mm 2 mps 728 mmHg 41%
    16:00 +25°C° 0 mm 2 mps 727 mmHg 41%
    17:00 +25°C° 0 mm 2 mps 727 mmHg 41%
    18:00 +24°C° 0 mm 2 mps 727 mmHg 48%
    19:00 +21°C° 0 mm 2 mps 727 mmHg 54%
    20:00 +19°C° 0 mm 2 mps 727 mmHg 60%
    21:00 +18°C° 0 mm 2 mps 727 mmHg 66%
    22:00 +17°C° 0 mm 2 mps 727 mmHg 72%
    23:00 +16°C° 0 mm 2 mps 727 mmHg 78%

    25 June, Monday

    Time Temperature Precipitation Wind Pressure Humidity
    00:00 +16°C° 0 mm 2 mps 727 mmHg 80%
    01:00 +15°C° 0 mm 1 mps 727 mmHg 83%
    02:00 +15°C° 0 mm 1 mps 727 mmHg 85%
    03:00 +14°C° 0 mm 1 mps 727 mmHg 86%
    04:00 +14°C° 0 mm 2 mps 727 mmHg 87%
    05:00 +14°C° 0 mm 2 mps 727 mmHg 88%
    06:00 +16°C° 0 mm 2 mps 727 mmHg 79%
    07:00 +18°C° 0 mm 2 mps 727 mmHg 70%
    08:00 +20°C° 0 mm 3 mps 728 mmHg 62%
    09:00 +21°C° 0 mm 3 mps 728 mmHg 55%
    10:00 +23°C° 0 mm 4 mps 728 mmHg 49%
    11:00 +25°C° 0 mm 4 mps 728 mmHg 42%
    12:00 +26°C° 0 mm 5 mps 727 mmHg 40%
    13:00 +27°C° 0 mm 5 mps 727 mmHg 37%
    14:00 +28°C° 0 mm 5 mps 727 mmHg 35%
    15:00 +28°C° 0 mm 5 mps 726 mmHg 36%
    16:00 +28°C° 0 mm 5 mps 726 mmHg 37%
    17:00 +27°C° 0 mm 5 mps 726 mmHg 38%
    18:00 +25°C° 0 mm 5 mps 726 mmHg 45%
    19:00 +22°C° 0 mm 4 mps 726 mmHg 51%
    20:00 +20°C° 0 mm 3 mps 726 mmHg 58%
    21:00 +19°C° 0 mm 3 mps 726 mmHg 65%
    22:00 +18°C° 0 mm 3 mps 726 mmHg 71%
    23:00 +17°C° 0 mm 3 mps 726 mmHg 78%

    26 June, Tuesday

    Time Temperature Precipitation Wind Pressure Humidity
    00:00 +17°C° 0.1 mm 3 mps 725 mmHg 82%
    01:00 +17°C° 0.1 mm 3 mps 725 mmHg 85%
    02:00 +17°C° 0.1 mm 3 mps 725 mmHg 89%
    03:00 +17°C° 0.2 mm 3 mps 724 mmHg 90%
    04:00 +17°C° 0.2 mm 3 mps 724 mmHg 91%
    05:00 +17°C° 0.2 mm 3 mps 724 mmHg 92%
    06:00 +18°C° 0.3 mm 3 mps 724 mmHg 88%
    07:00 +18°C° 0.3 mm 4 mps 724 mmHg 84%
    08:00 +19°C° 0.3 mm 4 mps 724 mmHg 80%
    09:00 +20°C° 0.8 mm 4 mps 724 mmHg 80%
    10:00 +20°C° 0.8 mm 4 mps 723 mmHg 79%
    11:00 +21°C° 0.8 mm 3 mps 723 mmHg 79%
    12:00 +21°C° 3.2 mm 3 mps 723 mmHg 80%
    13:00 +21°C° 3.2 mm 3 mps 722 mmHg 81%
    14:00 +21°C° 3.2 mm 3 mps 722 mmHg 82%
    15:00 +22°C° 2.2 mm 3 mps 722 mmHg 80%
    16:00 +22°C° 2.2 mm 3 mps 722 mmHg 78%
    17:00 +22°C° 2.2 mm 3 mps 722 mmHg 76%
    18:00 +21°C° 0.7 mm 2 mps 722 mmHg 81%
    19:00 +20°C° 0.7 mm 2 mps 722 mmHg 85%
    20:00 +19°C° 0.7 mm 2 mps 722 mmHg 90%
    21:00 +19°C° 0.3 mm 1 mps 722 mmHg 91%
    22:00 +19°C° 0.3 mm 1 mps 722 mmHg 93%
    23:00 +18°C° 0.3 mm 1 mps 722 mmHg 94%
    Show more